When you browse on this site, cookies collect data to enhance your experience and personalize the content and advertising you see.
Visit our Privacy Policy to learn more. By continuing to use the site, you agree to this use of cookies and data.
  • Em Portugal
  • Lista de países
  • Para 7 dias
  • Temperatura da água
  • Mapa do tempo
  • Widgets de tempo
  • user-avatar
    Iniciar Sessão

    Previsão horária em Laszkar Gah

    Hoje, 9 Dezembro, Segunda-feira

    Tempo Temperatura Precipitação Vento Pressão Humidade
    00:00 +15°C° 0 mm 4 m/s 696 mmHg 29%
    01:00 +15°C° 0 mm 4 m/s 696 mmHg 29%
    02:00 +14°C° 0 mm 4 m/s 696 mmHg 31%
    03:00 +14°C° 0 mm 4 m/s 696 mmHg 33%
    04:00 +14°C° 0 mm 4 m/s 696 mmHg 36%
    05:00 +14°C° 0 mm 4 m/s 696 mmHg 38%
    06:00 +13°C° 0 mm 5 m/s 696 mmHg 41%
    07:00 +13°C° 0 mm 5 m/s 696 mmHg 44%
    08:00 +14°C° 0 mm 5 m/s 697 mmHg 43%
    09:00 +15°C° 0 mm 5 m/s 697 mmHg 43%
    10:00 +16°C° 0 mm 5 m/s 697 mmHg 42%
    11:00 +17°C° 0 mm 5 m/s 697 mmHg 41%
    12:00 +19°C° 0 mm 5 m/s 696 mmHg 40%
    13:00 +20°C° 0 mm 5 m/s 696 mmHg 39%
    14:00 +20°C° 0 mm 5 m/s 696 mmHg 40%
    15:00 +20°C° 0 mm 4 m/s 695 mmHg 41%
    16:00 +20°C° 0 mm 4 m/s 695 mmHg 42%
    17:00 +19°C° 0 mm 4 m/s 695 mmHg 42%
    18:00 +19°C° 0 mm 4 m/s 695 mmHg 41%
    19:00 +17°C° 0 mm 5 m/s 696 mmHg 41%
    20:00 +16°C° 0 mm 5 m/s 695 mmHg 43%
    21:00 +16°C° 0 mm 5 m/s 695 mmHg 46%
    22:00 +15°C° 0 mm 4 m/s 695 mmHg 49%
    23:00 +15°C° 0.6 mm 5 m/s 695 mmHg 54%

    Amanhã, 10 Dezembro, Terça-feira

    Tempo Temperatura Precipitação Vento Pressão Humidade
    00:00 +14°C° 0.6 mm 5 m/s 695 mmHg 59%
    01:00 +14°C° 0.6 mm 5 m/s 694 mmHg 63%
    02:00 +13°C° 0.8 mm 5 m/s 694 mmHg 67%
    03:00 +13°C° 0.8 mm 5 m/s 694 mmHg 70%
    04:00 +13°C° 0.8 mm 6 m/s 694 mmHg 73%
    05:00 +13°C° 0.5 mm 5 m/s 694 mmHg 74%
    06:00 +12°C° 0.5 mm 5 m/s 695 mmHg 76%
    07:00 +12°C° 0.5 mm 4 m/s 695 mmHg 77%
    08:00 +13°C° 0.2 mm 4 m/s 695 mmHg 72%
    09:00 +14°C° 0.2 mm 4 m/s 695 mmHg 68%
    10:00 +15°C° 0.2 mm 4 m/s 696 mmHg 63%
    11:00 +17°C° 0 mm 3 m/s 695 mmHg 60%
    12:00 +18°C° 0 mm 2 m/s 695 mmHg 57%
    13:00 +19°C° 0 mm 1 m/s 695 mmHg 54%
    14:00 +19°C° 0 mm 1 m/s 694 mmHg 53%
    15:00 +19°C° 0 mm 1 m/s 694 mmHg 52%
    16:00 +19°C° 0 mm 1 m/s 694 mmHg 51%
    17:00 +19°C° 0 mm 1 m/s 694 mmHg 54%
    18:00 +18°C° 0 mm 1 m/s 694 mmHg 57%
    19:00 +16°C° 0 mm 1 m/s 694 mmHg 60%
    20:00 +16°C° 0 mm 1 m/s 694 mmHg 61%
    21:00 +16°C° 0 mm 1 m/s 694 mmHg 63%
    22:00 +15°C° 0 mm 1 m/s 694 mmHg 64%
    23:00 +15°C° 0 mm 1 m/s 694 mmHg 65%

    Depois de amanhã, 11 Dezembro, Quarta-feira

    Tempo Temperatura Precipitação Vento Pressão Humidade
    00:00 +14°C° 0 mm 1 m/s 693 mmHg 66%
    01:00 +13°C° 0 mm 1 m/s 693 mmHg 67%
    02:00 +13°C° 0 mm 2 m/s 693 mmHg 67%
    03:00 +13°C° 0 mm 2 m/s 693 mmHg 67%
    04:00 +13°C° 0 mm 2 m/s 693 mmHg 67%
    05:00 +12°C° 0 mm 1 m/s 693 mmHg 69%
    06:00 +12°C° 0 mm 1 m/s 693 mmHg 70%
    07:00 +10°C° 0 mm 0 m/s 693 mmHg 71%
    08:00 +12°C° 0 mm 0 m/s 693 mmHg 64%
    09:00 +14°C° 0 mm 1 m/s 694 mmHg 57%
    10:00 +16°C° 0 mm 1 m/s 694 mmHg 49%
    11:00 +16°C° 0 mm 1 m/s 694 mmHg 44%
    12:00 +18°C° 0 mm 1 m/s 693 mmHg 38%
    13:00 +19°C° 0 mm 1 m/s 693 mmHg 33%
    14:00 +18°C° 0 mm 2 m/s 692 mmHg 34%
    15:00 +17°C° 0 mm 2 m/s 692 mmHg 35%
    16:00 +17°C° 0 mm 3 m/s 692 mmHg 36%
    17:00 +16°C° 0 mm 3 m/s 692 mmHg 40%
    18:00 +16°C° 0 mm 2 m/s 692 mmHg 44%
    19:00 +15°C° 0 mm 2 m/s 692 mmHg 48%
    20:00 +14°C° 0 mm 2 m/s 692 mmHg 49%
    21:00 +14°C° 0 mm 2 m/s 692 mmHg 51%
    22:00 +14°C° 0 mm 2 m/s 692 mmHg 52%
    23:00 +13°C° 0 mm 2 m/s 692 mmHg 54%

    12 Dezembro, Quinta-feira

    Tempo Temperatura Precipitação Vento Pressão Humidade
    00:00 +13°C° 0 mm 2 m/s 692 mmHg 56%
    01:00 +12°C° 0 mm 2 m/s 692 mmHg 59%
    02:00 +12°C° 0 mm 1 m/s 692 mmHg 62%
    03:00 +11°C° 0 mm 1 m/s 691 mmHg 65%
    04:00 +11°C° 0 mm 1 m/s 691 mmHg 68%
    05:00 +11°C° 0 mm 1 m/s 691 mmHg 69%
    06:00 +11°C° 0 mm 1 m/s 692 mmHg 70%
    07:00 +9°C° 0 mm 0 m/s 692 mmHg 70%
    08:00 +11°C° 0 mm 0 m/s 693 mmHg 64%
    09:00 +13°C° 0 mm 1 m/s 693 mmHg 58%
    10:00 +14°C° 0 mm 1 m/s 693 mmHg 51%
    11:00 +15°C° 0 mm 1 m/s 693 mmHg 48%
    12:00 +16°C° 0 mm 1 m/s 693 mmHg 44%
    13:00 +16°C° 0 mm 1 m/s 692 mmHg 41%
    14:00 +16°C° 0 mm 2 m/s 692 mmHg 40%
    15:00 +16°C° 0 mm 2 m/s 692 mmHg 39%
    16:00 +16°C° 0 mm 2 m/s 692 mmHg 38%
    17:00 +16°C° 0 mm 2 m/s 692 mmHg 41%
    18:00 +15°C° 0 mm 2 m/s 692 mmHg 44%
    19:00 +14°C° 0 mm 2 m/s 692 mmHg 47%
    20:00 +14°C° 0 mm 2 m/s 692 mmHg 47%
    21:00 +13°C° 0 mm 2 m/s 692 mmHg 47%
    22:00 +13°C° 0 mm 2 m/s 692 mmHg 47%
    23:00 +13°C° 0 mm 2 m/s 692 mmHg 47%

    13 Dezembro, Sexta-feira

    Tempo Temperatura Precipitação Vento Pressão Humidade
    00:00 +12°C° 0 mm 2 m/s 692 mmHg 46%
    01:00 +12°C° 0 mm 2 m/s 692 mmHg 46%
    02:00 +12°C° 0 mm 2 m/s 692 mmHg 46%
    03:00 +10°C° 0 mm 2 m/s 692 mmHg 46%
    04:00 +10°C° 0 mm 2 m/s 692 mmHg 46%
    05:00 +10°C° 0 mm 2 m/s 692 mmHg 47%
    06:00 +10°C° 0 mm 1 m/s 692 mmHg 47%
    07:00 +10°C° 0 mm 1 m/s 692 mmHg 48%
    08:00 +12°C° 0 mm 1 m/s 693 mmHg 45%
    09:00 +13°C° 0 mm 1 m/s 694 mmHg 41%
    10:00 +15°C° 0 mm 1 m/s 694 mmHg 38%
    11:00 +15°C° 0 mm 1 m/s 694 mmHg 36%
    12:00 +16°C° 0 mm 1 m/s 694 mmHg 35%
    13:00 +18°C° 0 mm 1 m/s 693 mmHg 34%
    14:00 +18°C° 0 mm 1 m/s 693 mmHg 34%
    15:00 +18°C° 0 mm 1 m/s 693 mmHg 35%
    16:00 +18°C° 0 mm 1 m/s 693 mmHg 35%
    17:00 +16°C° 0 mm 1 m/s 693 mmHg 37%
    18:00 +16°C° 0 mm 2 m/s 694 mmHg 38%
    19:00 +14°C° 0 mm 3 m/s 694 mmHg 39%
    20:00 +14°C° 0 mm 3 m/s 694 mmHg 40%
    21:00 +14°C° 0 mm 3 m/s 694 mmHg 41%
    22:00 +14°C° 0 mm 3 m/s 694 mmHg 43%
    23:00 +13°C° 0 mm 4 m/s 694 mmHg 44%

    14 Dezembro, Sábado

    Tempo Temperatura Precipitação Vento Pressão Humidade
    00:00 +13°C° 0 mm 6 m/s 693 mmHg 45%
    01:00 +12°C° 0 mm 7 m/s 693 mmHg 46%
    02:00 +12°C° 0 mm 7 m/s 693 mmHg 47%
    03:00 +12°C° 0 mm 7 m/s 693 mmHg 48%
    04:00 +12°C° 0 mm 7 m/s 693 mmHg 50%
    05:00 +11°C° 0 mm 7 m/s 693 mmHg 52%
    06:00 +11°C° 0 mm 7 m/s 693 mmHg 54%
    07:00 +10°C° 0 mm 8 m/s 693 mmHg 57%
    08:00 +11°C° 0.1 mm 7 m/s 693 mmHg 57%
    09:00 +11°C° 0.1 mm 7 m/s 694 mmHg 56%
    10:00 +12°C° 0.1 mm 7 m/s 694 mmHg 56%
    11:00 +12°C° 0.5 mm 7 m/s 694 mmHg 61%
    12:00 +11°C° 0.5 mm 7 m/s 693 mmHg 65%
    13:00 +11°C° 0.5 mm 7 m/s 693 mmHg 70%
    14:00 +11°C° 0.1 mm 7 m/s 693 mmHg 70%
    15:00 +11°C° 0.1 mm 7 m/s 693 mmHg 69%
    16:00 +11°C° 0.1 mm 7 m/s 693 mmHg 69%
    17:00 +10°C° 0 mm 7 m/s 693 mmHg 70%
    18:00 +10°C° 0 mm 7 m/s 694 mmHg 71%
    19:00 +9°C° 0 mm 6 m/s 694 mmHg 72%
    20:00 +9°C° 0 mm 6 m/s 694 mmHg 72%
    21:00 +9°C° 0 mm 6 m/s 694 mmHg 73%
    22:00 +9°C° 0 mm 6 m/s 695 mmHg 73%
    23:00 +9°C° 0 mm 6 m/s 695 mmHg 73%
    Mostrar mais